TimeEET,TemperatureF,Dew PointF,Humidity,Sea Level PressureIn,VisibilityMPH,Wind Direction,Wind SpeedMPH,Gust SpeedMPH,PrecipitationIn,Events,Conditions,WindDirDegrees,DateUTC
12:20 AM,53.6,51.8,94,29.86,1.2,SSW,4.6,-,N/A,Rain-Thunderstorm,Heavy Thunderstorms and Rain,200,2012-12-09 22:20:00
12:50 AM,53.6,51.8,94,29.83,2.5,SE,8.1,-,N/A,Rain-Thunderstorm,Thunderstorms and Rain,130,2012-12-09 22:50:00
1:20 AM,53.6,51.8,94,29.83,2.5,Variable,5.8,-,N/A,Rain-Thunderstorm,Thunderstorms and Rain,0,2012-12-09 23:20:00
1:50 AM,53.6,51.8,94,29.83,1.2,Variable,6.9,-,N/A,Rain-Thunderstorm,Heavy Thunderstorms and Rain,0,2012-12-09 23:50:00
2:00 AM,53,52,96,29.81,1,SW,6.9,,,Rain-Thunderstorm,Heavy Thunderstorms and Rain,230,2012-12-10 00:00:00
2:20 AM,51.8,51.8,100,29.80,1.2,Variable,5.8,-,N/A,Rain-Thunderstorm,Heavy Thunderstorms and Rain,0,2012-12-10 00:20:00
2:50 AM,50.0,50.0,100,29.77,1.2,SE,4.6,-,N/A,Rain-Thunderstorm,Heavy Thunderstorms and Rain,130,2012-12-10 00:50:00
3:20 AM,51.8,51.8,100,29.77,3.7,SSE,8.1,-,N/A,Rain-Thunderstorm,Thunderstorms and Rain,150,2012-12-10 01:20:00
3:50 AM,53.6,53.6,100,29.77,1.2,South,8.1,-,N/A,Rain-Thunderstorm,Heavy Thunderstorms and Rain,180,2012-12-10 01:50:00
4:20 AM,55.4,53.6,94,29.74,1.2,Variable,3.5,-,N/A,Rain-Thunderstorm,Heavy Thunderstorms and Rain,0,2012-12-10 02:20:00
4:50 AM,55.4,53.6,94,29.74,1.2,South,6.9,19.6,N/A,Rain-Thunderstorm,Heavy Thunderstorms and Rain,180,2012-12-10 02:50:00
5:20 AM,55.4,53.6,94,29.74,1.2,SSE,9.2,-,N/A,Rain-Thunderstorm,Heavy Thunderstorms and Rain,150,2012-12-10 03:20:00
5:50 AM,53.6,53.6,100,29.71,1.2,South,5.8,-,N/A,Rain-Thunderstorm,Heavy Thunderstorms and Rain,170,2012-12-10 03:50:00
6:20 AM,55.4,51.8,88,29.71,1.2,Variable,4.6,-,N/A,Rain-Thunderstorm,Heavy Thunderstorms and Rain,0,2012-12-10 04:20:00
6:50 AM,53.6,51.8,94,29.68,1.2,South,13.8,-,N/A,Rain-Thunderstorm,Heavy Thunderstorms and Rain,170,2012-12-10 04:50:00
7:20 AM,51.8,50.0,94,29.68,1.2,SSE,11.5,23.0,N/A,Rain-Thunderstorm,Heavy Thunderstorms and Rain,160,2012-12-10 05:20:00
7:50 AM,53.6,53.6,100,29.68,1.2,South,16.1,27.6,N/A,Rain-Thunderstorm,Heavy Thunderstorms and Rain,190,2012-12-10 05:50:00
8:00 AM,54,53,94,29.68,1,South,16.1,,,Rain-Thunderstorm,Heavy Thunderstorms and Rain,190,2012-12-10 06:00:00
8:20 AM,51.8,51.8,100,29.68,1.2,WSW,3.5,-,N/A,Rain-Thunderstorm,Heavy Thunderstorms and Rain,240,2012-12-10 06:20:00
8:50 AM,57.2,55.4,94,29.68,1.2,South,10.4,-,N/A,Rain-Thunderstorm,Heavy Thunderstorms and Rain,170,2012-12-10 06:50:00
9:20 AM,57.2,53.6,88,29.68,3.7,SSE,12.7,-,N/A,Rain-Thunderstorm,Light Thunderstorms and Rain,150,2012-12-10 07:20:00
9:50 AM,57.2,53.6,88,29.65,6.2,SE,9.2,-,N/A,Rain-Thunderstorm,Light Thunderstorms and Rain,130,2012-12-10 07:50:00
10:20 AM,59.0,53.6,82,29.62,3.7,SE,17.3,-,N/A,Rain-Thunderstorm,Light Thunderstorms and Rain,130,2012-12-10 08:20:00
10:50 AM,55.4,53.6,94,29.65,0.6,South,18.4,31.1,N/A,Rain-Thunderstorm,Thunderstorms and Rain,170,2012-12-10 08:50:00
11:20 AM,53.6,51.8,94,29.59,3.7,Variable,2.3,-,N/A,Rain-Thunderstorm,Light Thunderstorms and Rain,0,2012-12-10 09:20:00
11:50 AM,55.4,53.6,94,29.59,4.3,East,8.1,-,N/A,Rain-Thunderstorm,Light Thunderstorms and Rain,100,2012-12-10 09:50:00
12:20 PM,55.4,53.6,94,29.56,3.7,East,9.2,-,N/A,Rain-Thunderstorm,Light Thunderstorms and Rain,80,2012-12-10 10:20:00
12:50 PM,57.2,55.4,94,29.56,3.1,ESE,4.6,-,N/A,Rain-Thunderstorm,Light Thunderstorms and Rain,120,2012-12-10 10:50:00
1:20 PM,55.4,53.6,94,29.56,3.1,NE,8.1,-,N/A,Rain-Thunderstorm,Light Thunderstorms and Rain,40,2012-12-10 11:20:00
1:50 PM,53.6,51.8,94,29.56,3.1,ENE,8.1,-,N/A,Rain-Thunderstorm,Light Thunderstorms and Rain,70,2012-12-10 11:50:00
2:00 PM,54,52,91,29.56,3,ENE,8.1,,,Rain-Thunderstorm,Thunderstorms and Rain,70,2012-12-10 12:00:00
2:20 PM,53.6,51.8,94,29.53,3.1,ENE,8.1,-,N/A,Rain-Thunderstorm,Light Thunderstorms and Rain,70,2012-12-10 12:20:00
2:50 PM,55.4,53.6,94,29.53,3.1,Variable,2.3,-,N/A,Rain-Thunderstorm,Light Thunderstorms and Rain,0,2012-12-10 12:50:00
3:20 PM,55.4,53.6,94,29.53,4.3,NE,6.9,-,N/A,Rain-Thunderstorm,Light Thunderstorms and Rain,40,2012-12-10 13:20:00
3:50 PM,53.6,51.8,94,29.53,4.3,NNE,6.9,-,N/A,,Mostly Cloudy,20,2012-12-10 13:50:00
4:20 PM,53.6,51.8,94,29.53,4.3,ENE,9.2,-,N/A,,Mostly Cloudy,60,2012-12-10 14:20:00
4:50 PM,53.6,50.0,88,29.53,3.7,NNE,6.9,-,N/A,Rain-Thunderstorm,Light Thunderstorms and Rain,20,2012-12-10 14:50:00
5:20 PM,51.8,48.2,88,29.56,6.2,North,11.5,-,N/A,Rain-Thunderstorm,Light Thunderstorms and Rain,360,2012-12-10 15:20:00
5:50 PM,51.8,50.0,94,29.56,6.2,NNW,10.4,-,N/A,Rain-Thunderstorm,Light Thunderstorms and Rain,330,2012-12-10 15:50:00
6:20 PM,50.0,48.2,94,29.56,3.7,NNW,11.5,-,N/A,Rain-Thunderstorm,Light Thunderstorms and Rain,340,2012-12-10 16:20:00
6:50 PM,50.0,48.2,94,29.56,6.2,North,11.5,-,N/A,Rain-Thunderstorm,Light Thunderstorms and Rain,360,2012-12-10 16:50:00
7:20 PM,50.0,48.2,94,29.56,6.2,North,15.0,-,N/A,Rain-Thunderstorm,Light Thunderstorms and Rain,360,2012-12-10 17:20:00
7:50 PM,50.0,48.2,94,29.59,6.2,NNW,12.7,-,N/A,Rain-Thunderstorm,Light Thunderstorms and Rain,340,2012-12-10 17:50:00
8:00 PM,50,47,86,29.59,6,NNW,12.7,,,Rain-Thunderstorm,Thunderstorms and Rain,340,2012-12-10 18:00:00
8:20 PM,50.0,46.4,87,29.59,6.2,North,9.2,-,N/A,Rain-Thunderstorm,Light Thunderstorms and Rain,360,2012-12-10 18:20:00
8:50 PM,50.0,46.4,87,29.59,6.2,NNW,9.2,-,N/A,Rain-Thunderstorm,Light Thunderstorms and Rain,340,2012-12-10 18:50:00
9:20 PM,50.0,46.4,87,29.59,6.2,NNW,8.1,-,N/A,,Scattered Clouds,330,2012-12-10 19:20:00
9:50 PM,50.0,46.4,87,29.62,6.2,NW,8.1,-,N/A,,Scattered Clouds,310,2012-12-10 19:50:00
10:20 PM,50.0,46.4,87,29.62,6.2,NW,8.1,-,N/A,,Scattered Clouds,320,2012-12-10 20:20:00
10:50 PM,50.0,46.4,87,29.65,6.2,NNW,8.1,-,N/A,,Scattered Clouds,330,2012-12-10 20:50:00
11:20 PM,50.0,44.6,82,29.65,6.2,NW,9.2,-,N/A,,Scattered Clouds,320,2012-12-10 21:20:00
11:50 PM,51.8,44.6,76,29.68,6.2,NW,10.4,-,N/A,Rain,Light Rain Showers,320,2012-12-10 21:50:00